Regional Weather Roundup
Issued by NWS Cleveland, OH

Home | Current Version | Previous Version | Graphics & Text | Print | Product List | Glossary On
Versions: 1 2 3 4 5 6 7 8 9 10 11 12 13 14 15 16 17 18 19 20 21 22 23 24 25 26 27 28 29 30 31 32 33 34 35 36 37 38 39 40 41 42 43 44 45 46 47 48 49 50
000
ASUS41 KCLE 230910
RWRCLE
OHIO REGIONAL WEATHER ROUNDUP
NATIONAL WEATHER SERVICE WILMINGTON, OH
500 AM EDT FRI JUN 23 2017

NOTE: "FAIR" INDICATES FEW OR NO CLOUDS BELOW 12,000 FEET WITH NO
SIGNIFICANT WEATHER AND/OR OBSTRUCTIONS TO VISIBILITY.

OHZ001>008-015>018-024>027-034-035-043-044-231000-
   NORTHWEST OHIO

CITY           SKY/WX    TMP DP  RH WIND       PRES   REMARKS
DEFIANCE       LGT RAIN  69  68  96 S9        29.69S
FINDLAY        CLOUDY    72  67  84 S12       29.70F
TOLEDO EXPRESS CLOUDY    71  69  93 S7        29.68F
TOLEDO EXEC    CLOUDY    72  69  90 S13       29.70F
LIMA           CLOUDY    71  70  96 S13       29.72F
$$

OHZ009>014-019>023-028>033-038-089-231000-
   NORTHEAST OHIO

CITY           SKY/WX    TMP DP  RH WIND       PRES   REMARKS
CLE-HOPKINS    MOCLDY    74  66  76 S9        29.74F
CLE-LAKEFRONT  CLOUDY    74  65  73 S16       29.71F
CUY CO. ARPT   NOT AVBL
LORAIN-ELYRIA  MOCLDY    72  62  71 S12       29.73F
ASHTABULA      CLOUDY    72  67  84 S10       29.77F
AKRON-CANTON   CLOUDY    72  65  78 SW10      29.78F
WOOSTER        CLOUDY    70  66  87 S9        29.77F
MANSFIELD      CLOUDY    69  68  96 S12       29.76F
YOUNGSTOWN     MOCLDY    71  65  81 S6        29.79F
$$

OHZ042-051>053-060>062-070>072-077>081-231000-
  SOUTHWEST OHIO

CITY           SKY/WX    TMP DP  RH WIND       PRES   REMARKS
CINC-COVINGTON CLOUDY    73  72  96 S12       29.79S
CINC-LUNKEN    CLOUDY    74  74 100 S10       29.79S
HAMILTON       CLOUDY    75  73  93 SW6       29.78F
DAYTON         CLOUDY    72  71  97 SW14      29.77F
WRIGHT-PAT AFB CLOUDY    72  72 100 S12       29.76F
DAYTON GENERAL CLOUDY    72  71  97 SW9       29.77F
WILMINGTON     CLOUDY    72  72 100 SW15G24   29.78F
$$

OHZ036-037-039>041-045>050-054>059-063>069-073>076-082>088-231000-
  CENTRAL AND SOUTHEAST OHIO

CITY           SKY/WX    TMP DP  RH WIND       PRES   REMARKS
COLUMBUS       LGT RAIN  71  71 100 SW10      29.77F
OSU AIRPORT    CLOUDY    71  71 100 S12       29.77F
BOLTON FIELD   NOT AVBL
RICKENBACK AFB DRIZZLE   69  69 100 S14       29.78F
NEWARK         CLOUDY    71  68  90 SW9       29.78F
MARION         CLOUDY    70  68  93 S12       29.75F FOG
LANCASTER      CLOUDY    71  69  93 SW12      29.80F
ZANESVILLE     LGT RAIN  70  68  93 S8        29.80F FOG
NEW PHILLY     CLOUDY    71  69  93 VRB5      29.79F
$$



USA.gov is the U.S. government's official web portal to all federal, state and local government web resources and services.